[[{"header":{"parameterUnit":"m.s-1","parameterCategory":1,"la1":30.2991,"la2":30.254,"lo1":-89.0895,"lo2":-89.0444,"dy":0.0017,"dx":0.0017,"nx":28,"ny":28,"refTime":"2024-03-02T09:00:00:Z","depth":0,"parameterNumber":2,"parameterNumberName":"U-component_of_WINDS"},"data":[0,0,0,0,0,0,0,0,0,0,0,0,0,0,0,0,0,0,0,0,0,0,0,0,0,0,0,0,0,0,0,0,0,0,0,0,0,0,0,0,0,0,0,0,0,0,0,0,0,0,0,0,0,0,0,0,0,0,-3.3824,-3.3824,0,-3.3847,-3.3848,-3.3848,-3.3782,-3.378,-3.3778,-3.3776,-3.3798,-3.38,-3.3803,0,0,0,0,0,0,0,0,0,0,0,0,0,-3.3722,-3.3724,-3.3824,-3.3824,-3.3825,-3.3847,-3.3848,-3.3848,-3.3783,-3.378,-3.3778,-3.3775,-3.3797,-3.38,-3.3803,0,0,0,0,0,0,0,0,0,0,0,0,0,-3.3758,-3.3725,-3.3824,-3.3795,-3.3792,-3.3847,-3.3848,-3.3848,-3.3783,-3.378,-3.3777,-3.3774,-3.3796,-3.38,-3.3803,-3.3886,0,0,-3.3814,-3.3816,0,0,0,0,0,0,0,0,-3.3756,-3.3762,-3.3799,-3.3797,-3.3794,-3.3809,-3.3819,-3.3861,-3.3784,-3.3787,-3.3776,-3.3773,-3.3804,-3.3807,-3.3817,-3.3887,-3.3888,-3.3815,-3.3817,-3.3819,-3.382,0,0,0,0,0,0,0,-3.3753,-3.376,-3.3833,-3.3799,-3.3797,-3.378,-3.3782,-3.3827,-3.3812,-3.3786,-3.3781,-3.3785,-3.3802,-3.3814,-3.3817,-3.3889,-3.3815,-3.3818,-3.382,-3.3822,-3.4029,-3.4032,0,0,0,0,0,0,-3.3755,-3.3759,-3.3832,-3.3834,-3.3767,-3.3785,-3.3786,-3.3807,-3.3811,-3.3809,-3.3788,-3.3782,-3.3809,-3.3813,-3.3818,-3.3916,-3.3819,-3.3822,-3.3824,-3.4026,-3.403,-3.4033,0,0,0,0,0,0,-3.3753,-3.3762,-3.3831,-3.3795,-3.3803,-3.379,-3.3813,-3.3809,-3.3821,-3.3812,-3.3809,-3.3803,-3.3807,-3.3813,-3.387,-3.3916,-3.3824,-3.3827,-3.4022,-3.4027,-3.4032,-3.4113,0,0,0,0,0,0,-3.375,-3.3762,-3.3793,-3.3796,-3.3805,-3.3884,-3.3816,-3.3812,-3.3828,-3.3821,-3.3826,-3.3824,-3.3805,-3.3865,-3.3874,-3.3919,-3.383,-3.4018,-3.4024,-3.403,-3.4106,-3.412,-3.4132,0,0,0,0,0,-3.3747,-3.3815,-3.3795,-3.3805,-3.3844,-3.3887,-3.3891,-3.3869,-3.3832,-3.3864,-3.3858,-3.3824,-3.391,-3.3872,-3.3881,-3.3928,-3.4015,-3.4022,-3.403,-3.41,-3.4117,-3.4131,0,0,0,0,0,0,-3.3816,-3.3814,-3.3793,-3.3864,-3.3876,-3.3875,-3.3914,-3.3888,-3.391,-3.3902,-3.3873,-3.3875,-3.3938,-3.3939,-3.3896,-3.4009,-3.3956,-3.3966,-3.4006,-3.4022,-3.4035,-3.4033,-3.3833,0,0,0,0,0,-3.384,-3.3875,-3.3871,-3.3934,-3.3941,-3.3927,-3.3945,-3.3927,-3.3938,-3.3943,-3.3941,-3.3953,-3.3983,-3.4003,-3.4029,-3.4106,-3.4106,-3.4143,-3.4156,-3.4167,-3.4175,-3.4217,-3.4233,-3.4058,-3.4058,-3.4058,0,0,-3.3888,-3.3892,-3.3915,-3.3948,-3.3955,-3.3992,-3.3932,-3.3973,-3.4,-3.3949,-3.4003,-3.4003,-3.4014,-3.4082,-3.4112,-3.4084,-3.4224,-3.4177,-3.4185,-3.4188,-3.4226,-3.4243,-3.4257,-3.4063,-3.4062,-3.4061,0,0,-3.3995,-3.4002,-3.4055,-3.4065,-3.4077,-3.4068,-3.4081,-3.4085,-3.4083,-3.4138,-3.4101,-3.4132,-3.4184,-3.4194,-3.4205,-3.432,-3.4289,-3.4329,-3.4396,-3.4437,-3.4451,-3.4463,-3.4503,-3.4518,-3.4338,-3.4338,-3.4338,0,-3.4054,-3.4108,-3.4086,-3.413,-3.4146,-3.4103,-3.4157,-3.4167,-3.4187,-3.4199,-3.4169,-3.4234,-3.4238,-3.4308,-3.4336,-3.4347,-3.4361,-3.4328,-3.4451,-3.4462,-3.4473,-3.4512,-3.4527,-3.4343,-3.4342,-3.4342,-3.4341,0,-3.418,-3.4219,-3.426,-3.4283,-3.4303,-3.4352,-3.4336,-3.436,-3.4341,-3.4335,-3.4391,-3.4396,-3.4423,-3.4439,-3.442,-3.4506,-3.4489,-3.4456,-3.4401,-3.4495,-3.4531,-3.4545,-3.435,-3.4348,-3.4347,-3.4345,0,0,-3.4328,-3.434,-3.4355,-3.4366,-3.4378,-3.4407,-3.4455,-3.4483,-3.4503,-3.452,-3.4558,-3.4605,-3.4574,-3.4587,-3.457,-3.4606,-3.4696,-3.4568,-3.4567,-3.4591,-3.4792,-3.4816,-3.4833,-3.4677,-3.4679,-3.4681,-3.479,0,-3.4434,-3.4516,-3.4498,-3.4579,-3.4614,-3.4576,-3.4617,-3.4629,-3.4625,-3.4654,-3.465,-3.4683,-3.464,-3.4648,-3.4682,-3.4678,-3.4736,-3.467,-3.4712,-3.4713,-3.4709,-3.4852,-3.4878,-3.498,-3.4804,-3.4807,-3.4808,0,-3.4567,-3.4591,-3.4675,-3.4683,-3.4697,-3.4735,-3.476,-3.4789,-3.4802,-3.4797,-3.4814,-3.479,-3.4836,-3.4783,-3.4847,-3.4803,-3.4819,-3.482,-3.4824,-3.4825,-3.4766,-3.4857,-3.5012,-3.5028,-3.483,-3.4828,-3.4827,0,-3.4667,-3.4719,-3.4777,-3.4787,-3.4798,-3.4825,-3.4831,-3.4841,-3.486,-3.4882,-3.4894,-3.4921,-3.4935,-3.4957,-3.4941,-3.4903,-3.5008,-3.4953,-3.5004,-3.5004,-3.5026,-3.5025,-3.5185,-3.5039,-3.5039,-3.5038,-3.5038,0,-3.4786,-3.4839,-3.4822,-3.4857,-3.4916,-3.4896,-3.4954,-3.4955,-3.4965,-3.5,-3.4968,-3.5001,-3.4979,-3.501,-3.4998,-3.5053,-3.506,-3.5057,-3.5053,-3.5059,-3.5059,-3.5068,-3.506,-3.5042,-3.5041,-3.5041,-3.504,0,-3.4906,-3.4897,-3.4957,-3.4964,-3.4967,-3.501,-3.5015,-3.5048,-3.5043,-3.5087,-3.5096,-3.5088,-3.5123,-3.511,-3.5147,-3.5139,-3.521,-3.5197,-3.5206,-3.5202,-3.5254,-3.5249,-3.5425,-3.5447,-3.5287,-3.5288,-3.529,0,-3.4982,-3.5022,-3.5034,-3.5055,-3.5064,-3.5099,-3.5118,-3.51,-3.5122,-3.5141,-3.5172,-3.5205,-3.523,-3.5289,-3.5285,-3.5314,-3.5301,-3.5361,-3.5305,-3.531,-3.5301,-3.5299,-3.5302,-3.5371,-3.5373,-3.5375,-3.5376,0,-3.5117,-3.5112,-3.5141,-3.5171,-3.5195,-3.5217,-3.5235,-3.5255,-3.5238,-3.5264,-3.53,-3.532,-3.536,-3.5393,-3.5419,-3.5424,-3.5397,-3.5394,-3.5407,-3.5413,-3.5417,-3.5415,-3.5235,-3.539,-3.5388,-3.5387,-3.5387,-3.5386,-3.5217,-3.5251,-3.5266,-3.53,-3.5313,-3.5332,-3.5363,-3.5363,-3.5394,-3.5425,-3.5413,-3.5455,-3.5469,-3.5501,-3.5511,-3.5543,-3.552,-3.5539,-3.5544,-3.5549,-3.5555,-3.5413,-3.5548,-3.5548,-3.5547,-3.5547,-3.5547,0,-3.535,-3.5358,-3.539,-3.5419,-3.5446,-3.5421,-3.5441,-3.5465,-3.5503,-3.5519,-3.5545,-3.5588,-3.5621,-3.5621,-3.5652,-3.5678,-3.5666,-3.5686,-3.5683,-3.5685,-3.5574,-3.556,-3.5695,-3.5695,-3.5695,-3.5695,-3.5695,-3.5695,-3.5423,-3.548,-3.5476,-3.554,-3.5547,-3.5589,-3.5603,-3.562,-3.5632,-3.5682,-3.571,-3.571,-3.572,-3.5751,-3.578,-3.5779,-3.5792,-3.5816,-3.5811,-3.5707,-3.5692,-3.5678,-3.5664,-3.5819,-3.5819,-3.5918,-3.5919,-3.592]},{"header":{"parameterUnit":"m.s-1","parameterCategory":1,"la1":30.2991,"la2":30.254,"lo1":-89.0895,"lo2":-89.0444,"dy":0.0017,"dx":0.0017,"nx":28,"ny":28,"refTime":"2024-03-02T09:00:00:Z","depth":0,"parameterNumber":3,"parameterNumberName":"V-component_of_WINDS"},"data":[0,0,0,0,0,0,0,0,0,0,0,0,0,0,0,0,0,0,0,0,0,0,0,0,0,0,0,0,0,0,0,0,0,0,0,0,0,0,0,0,0,0,0,0,0,0,0,0,0,0,0,0,0,0,0,0,0,0,0.4515,0.4516,0,0.4571,0.4571,0.4572,0.4614,0.4614,0.4615,0.4615,0.4671,0.4672,0.4673,0,0,0,0,0,0,0,0,0,0,0,0,0,0.4447,0.4448,0.4515,0.4516,0.4516,0.457,0.4571,0.4572,0.4614,0.4614,0.4615,0.4615,0.4671,0.4672,0.4673,0,0,0,0,0,0,0,0,0,0,0,0,0,0.4487,0.4449,0.4515,0.4544,0.4547,0.457,0.4571,0.4572,0.4614,0.4614,0.4615,0.4616,0.467,0.4672,0.4674,0.4672,0,0,0.4679,0.468,0,0,0,0,0,0,0,0,0.4485,0.449,0.4539,0.4542,0.4545,0.4586,0.4568,0.4606,0.4614,0.4588,0.4615,0.4616,0.4642,0.4646,0.4655,0.4675,0.4677,0.4679,0.468,0.4681,0.4681,0,0,0,0,0,0,0,0.4482,0.4487,0.4537,0.454,0.4544,0.4555,0.4561,0.4575,0.4611,0.4591,0.4594,0.46,0.4644,0.4654,0.4657,0.4678,0.4679,0.468,0.4681,0.4682,0.4704,0.4703,0,0,0,0,0,0,0.4475,0.4485,0.4535,0.4539,0.4516,0.4556,0.4563,0.4572,0.4611,0.4618,0.4599,0.4602,0.465,0.4655,0.4659,0.4663,0.4681,0.4682,0.4683,0.4704,0.4704,0.4703,0,0,0,0,0,0,0.4473,0.4479,0.4533,0.4513,0.452,0.4556,0.4567,0.4573,0.4583,0.4618,0.4625,0.4602,0.4651,0.4657,0.467,0.4665,0.4683,0.4685,0.4705,0.4704,0.4703,0.4668,0,0,0,0,0,0,0.4471,0.4478,0.4477,0.4512,0.4521,0.4542,0.4566,0.4574,0.4586,0.4589,0.4622,0.4629,0.4652,0.4667,0.4671,0.4668,0.4686,0.4705,0.4704,0.4704,0.467,0.4666,0.4663,0,0,0,0,0,0.4468,0.4464,0.4477,0.4482,0.4521,0.4541,0.4547,0.4574,0.4585,0.4585,0.4609,0.4627,0.4665,0.4668,0.4673,0.467,0.4706,0.4705,0.4704,0.4671,0.4667,0.4663,0,0,0,0,0,0,0.4425,0.4469,0.4483,0.449,0.4512,0.4548,0.4549,0.4568,0.4587,0.4589,0.4622,0.463,0.464,0.4656,0.4659,0.4673,0.4688,0.4688,0.4662,0.4658,0.4655,0.465,0.4687,0,0,0,0,0,0.4417,0.443,0.4467,0.4469,0.448,0.4512,0.4522,0.4542,0.4566,0.4575,0.4599,0.4621,0.4639,0.4649,0.4667,0.4673,0.4682,0.4674,0.467,0.4668,0.4667,0.4675,0.4672,0.47,0.47,0.47,0,0,0.4399,0.4424,0.443,0.4461,0.448,0.4494,0.452,0.4532,0.4543,0.4577,0.4591,0.461,0.4637,0.4648,0.4654,0.4662,0.4662,0.4666,0.4664,0.4665,0.4674,0.4671,0.4669,0.4699,0.4699,0.47,0,0,0.4373,0.4393,0.4399,0.4418,0.4448,0.447,0.4472,0.4507,0.4521,0.4536,0.4563,0.4577,0.4605,0.4624,0.4638,0.4625,0.4644,0.4629,0.4612,0.4619,0.4617,0.4615,0.4613,0.4611,0.4629,0.4629,0.4629,0,0.4347,0.4368,0.4399,0.4411,0.4425,0.4458,0.4465,0.4483,0.4516,0.4526,0.4535,0.4574,0.4594,0.4611,0.4609,0.4618,0.4622,0.4625,0.4615,0.4614,0.4612,0.461,0.4609,0.4627,0.4627,0.4627,0.4628,0,0.4336,0.4351,0.4352,0.4385,0.4399,0.4408,0.4442,0.4453,0.4473,0.4495,0.4512,0.4538,0.4563,0.4569,0.4587,0.4589,0.4594,0.4609,0.4624,0.4607,0.4606,0.4605,0.4624,0.4625,0.4626,0.4626,0,0,0.4282,0.4336,0.4335,0.4353,0.4389,0.4402,0.4414,0.4439,0.4449,0.4472,0.4484,0.451,0.4525,0.454,0.4561,0.4567,0.4558,0.4582,0.4583,0.4578,0.4566,0.4555,0.4553,0.4572,0.4572,0.4572,0.4564,0,0.4264,0.4287,0.4317,0.4331,0.4346,0.438,0.4391,0.4415,0.4437,0.4454,0.4479,0.4497,0.4514,0.4524,0.4532,0.4558,0.4556,0.4559,0.4584,0.4585,0.4577,0.4552,0.454,0.4531,0.4563,0.4563,0.4563,0,0.4244,0.4267,0.4283,0.4322,0.433,0.4339,0.4367,0.4382,0.4412,0.4428,0.4447,0.4471,0.4487,0.4501,0.4526,0.4526,0.4539,0.4554,0.4554,0.4558,0.4573,0.4556,0.4529,0.4528,0.4562,0.4562,0.4562,0,0.4206,0.4241,0.4256,0.4269,0.4314,0.432,0.434,0.437,0.4385,0.4409,0.442,0.4445,0.446,0.448,0.4511,0.4518,0.4533,0.4549,0.4547,0.4546,0.4548,0.4548,0.4523,0.4555,0.4555,0.4555,0.4555,0,0.4182,0.4191,0.424,0.4248,0.426,0.4296,0.4306,0.4329,0.4356,0.4371,0.4402,0.4416,0.4455,0.4474,0.4499,0.4516,0.4522,0.4536,0.4543,0.4534,0.4532,0.4542,0.4544,0.4555,0.4555,0.4555,0.4555,0,0.4141,0.4173,0.4192,0.4235,0.4246,0.4253,0.429,0.4301,0.4326,0.4345,0.4351,0.439,0.4415,0.4448,0.4482,0.4498,0.4513,0.4523,0.4503,0.4507,0.4504,0.4505,0.4486,0.4487,0.4517,0.4517,0.4516,0,0.4123,0.4131,0.4176,0.4188,0.4207,0.4227,0.4243,0.4279,0.4295,0.4331,0.4338,0.4365,0.4389,0.4426,0.4458,0.4485,0.4496,0.4488,0.45,0.4492,0.4498,0.4497,0.4499,0.4485,0.4484,0.4484,0.4484,0,0.409,0.4107,0.4129,0.4157,0.4176,0.42,0.4226,0.4234,0.4276,0.4293,0.4319,0.4337,0.4373,0.44,0.4432,0.4453,0.4476,0.448,0.4481,0.4472,0.4461,0.4469,0.4496,0.448,0.448,0.448,0.4481,0.4481,0.4061,0.4071,0.4105,0.4129,0.4153,0.4177,0.419,0.4218,0.424,0.4273,0.4294,0.4319,0.4352,0.4398,0.4418,0.4439,0.4448,0.4449,0.445,0.445,0.4448,0.4458,0.4445,0.4445,0.4445,0.4446,0.4446,0,0.4031,0.4055,0.4077,0.4113,0.4133,0.4154,0.4184,0.42,0.4222,0.4251,0.4274,0.4306,0.4333,0.4368,0.4399,0.4409,0.4421,0.4416,0.4416,0.4421,0.4437,0.4434,0.4406,0.4406,0.4406,0.4406,0.4406,0.4406,0.4017,0.4036,0.4057,0.4089,0.4113,0.4139,0.4155,0.4178,0.4202,0.4236,0.4259,0.4283,0.4315,0.4349,0.4375,0.4385,0.4395,0.4388,0.4401,0.4416,0.4419,0.4422,0.4419,0.4389,0.4389,0.4383,0.4383,0.4383]}]]